N0PB Weather Reports


Display with metric or nautical units.
time (UTC)temp
F
wind
direction
speed
MPH
gust
MPH
rain 1hr
in
rain 24hr
in
rain mn
in
humidity
%
barometer
mb
20260906153038 81 85 7.0 11.0 0.00 0.00 0.00 76 1014.4
20260906151532 80 77 6.0 10.0 0.00 0.00 0.00 78 1014.3
20260906150026 79 74 8.0 12.0 0.00 0.00 0.00 79 1014.4
20260906144525 78 79 2.0 9.0 0.00 0.00 0.00 80 1014.3
20260906143024 78 81 5.0 10.0 0.00 0.00 0.00 80 1014.4
20260906141523 77 65 6.0 10.0 0.00 0.00 0.00 81 1014.4
20260906140022 76 60 6.0 10.0 0.00 0.00 0.00 82 1014.3
20260906134520 75 81 6.0 13.0 0.00 0.00 0.00 82 1014.1
20260906133019 75 75 6.0 11.0 0.00 0.00 0.00 82 1014.0
20260906131522 75 68 8.0 12.0 0.00 0.00 0.00 80 1013.7
20260906130022 74 67 3.0 9.0 0.00 0.00 0.00 79 1013.9
20260906124515 74 69 2.0 6.0 0.00 0.00 0.00 78 1013.6
20260906123013 73 68 4.0 9.0 0.00 0.00 0.00 77 1013.7
20260906121509 73 77 4.0 8.0 0.00 0.00 0.00 77 1013.3
20260906120007 73 70 3.0 6.0 0.00 0.00 0.00 77 1013.3
20260906114506 74 70 3.0 5.0 0.00 0.00 0.00 77 1013.4
20260906113006 74 75 2.0 5.0 0.00 0.00 0.00 77 1013.4
20260906111501 74 76 1.0 5.0 0.00 0.00 0.00 78 1013.2
20260906110059 74 78 3.0 7.0 0.00 0.00 0.00 78 1013.0
20260906104557 75 79 2.0 5.0 0.00 0.00 0.00 78 1013.0
20260906103054 75 79 2.0 4.0 0.00 0.00 0.00 79 1012.8
20260906101557 75 76 2.0 6.0 0.00 0.00 0.00 79 1012.7
20260906100051 75 74 3.0 6.0 0.00 0.00 0.00 79 1012.7
20260906094548 76 75 4.0 10.0 0.00 0.00 0.00 79 1012.6
20260906093054 76 84 4.0 10.0 0.00 0.00 0.00 79 1012.3
20260906091542 76 77 5.0 8.0 0.00 0.00 0.00 79 1012.3
20260906090039 76 75 6.0 9.0 0.00 0.00 0.00 79 1012.2
20260906084548 77 65 3.0 9.0 0.00 0.00 0.00 79 1012.1
20260906083038 77 66 3.0 8.0 0.00 0.00 0.00 79 1012.0
20260906081537 77 61 4.0 9.0 0.00 0.00 0.00 80 1012.1
20260906080050 77 61 4.0 9.0 0.00 0.00 0.00 80 1012.0
20260906074535 77 29 0.0 0.0 0.00 0.00 0.00 80 1012.0
20260906073034 77 29 0.0 0.0 0.00 0.00 0.00 81 1012.0
20260906071534 77 29 0.0 0.0 0.00 0.00 0.00 82 1011.9
20260906070033 77 29 0.0 0.0 0.00 0.00 0.00 82 1011.8
20260906064535 77 29 0.0 0.0 0.00 0.00 0.00 82 1011.9
20260906063032 77 29 0.0 0.0 0.00 0.00 0.00 82 1012.1
20260906061537 76 29 0.0 0.0 0.00 0.00 0.00 83 1012.0
20260906060029 77 29 0.0 0.0 0.00 0.00 0.00 83 1012.1
20260906054527 78 29 0.0 0.0 0.00 0.00 0.00 84 1012.2
20260906053023 79 29 0.0 0.0 0.00 0.00 0.00 82 1012.1
20260906051521 79 29 0.0 0.0 0.00 0.00 0.00 83 1011.9
20260906050019 79 29 0.0 0.0 0.00 0.00 0.00 83 1011.8
20260906044520 80 29 0.0 0.0 0.00 0.00 0.00 81 1011.8
20260906043018 80 29 0.0 0.0 0.00 0.00 0.00 81 1011.7
20260906041518 81 29 0.0 0.0 0.00 0.00 0.00 80 1011.6
20260906040017 81 29 0.0 0.0 0.00 0.00 0.00 79 1011.5
20260906034525 82 29 0.0 0.0 0.00 0.00 0.00 77 1011.3
20260906033018 82 29 0.0 0.0 0.00 0.00 0.00 77 1011.1
20260906031515 83 29 0.0 0.0 0.00 0.00 0.00 76 1011.0
20260906030014 83 29 0.0 0.0 0.00 0.00 0.00 75 1010.9
20260906024513 84 29 0.0 0.0 0.00 0.00 0.00 73 1011.0
20260906023013 84 29 0.0 0.0 0.00 0.00 0.00 72 1010.7
20260906021516 85 29 0.0 0.0 0.00 0.00 0.00 70 1010.6
20260906020013 85 29 0.0 0.0 0.00 0.00 0.00 69 1010.5
20260906014520 85 29 2.0 4.0 0.00 0.00 0.00 68 1010.3
20260906013011 86 29 2.0 4.0 0.00 0.00 0.00 67 1010.0
20260906011511 87 29 0.0 3.0 0.00 0.00 0.00 64 1009.9
20260906010010 88 29 0.0 0.0 0.00 0.00 0.00 64 1009.8
20260906004509 90 29 0.0 0.0 0.00 0.00 0.00 60 1009.6
20260906003009 91 29 0.0 0.0 0.00 0.00 0.00 56 1009.5
20260906001508 92 29 0.0 0.0 0.00 0.00 0.00 55 1009.6
20260906000008 93 29 0.0 0.0 0.00 0.00 0.00 53 1009.6
20260905234506 94 29 0.0 4.0 0.00 0.00 0.00 52 1009.5
20260905233006 95 29 2.0 5.0 0.00 0.00 0.00 49 1009.6
20260905231506 95 29 4.0 8.0 0.00 0.00 0.00 48 1009.4
20260905230006 96 35 5.0 9.0 0.00 0.00 0.00 47 1009.4
20260905224512 96 14 4.0 9.0 0.00 0.00 0.00 46 1009.3
20260905223004 97 15 4.0 9.0 0.00 0.00 0.00 46 1009.3
20260905221509 97 22 6.0 10.0 0.00 0.00 0.00 46 1009.3
20260905220003 97 4 6.0 12.0 0.00 0.00 0.00 46 1009.3
20260905214501 98 4 7.0 12.0 0.00 0.00 0.00 45 1009.3
20260905213100 98 27 5.0 9.0 0.00 0.00 0.00 43 1009.4
20260905211558 98 339 7.0 14.0 0.00 0.00 0.00 42 1009.7
20260905210056 98 339 3.0 12.0 0.00 0.00 0.00 43 1009.9
20260905204554 98 12 7.0 11.0 0.00 0.00 0.00 42 1010.1
20260905203054 98 354 6.0 11.0 0.00 0.00 0.00 42 1010.1
20260905201601 96 319 5.0 11.0 0.00 0.00 0.00 44 1010.3
20260905200052 97 335 4.0 10.0 0.00 0.00 0.00 46 1010.5
20260905194551 97 316 7.0 10.0 0.00 0.00 0.00 44 1010.5
20260905193050 99 345 9.0 12.0 0.00 0.00 0.00 41 1010.7
20260905191552 98 318 9.0 14.0 0.00 0.00 0.00 42 1010.7
20260905190100 98 322 8.0 11.0 0.00 0.00 0.00 42 1010.8
20260905184558 98 287 3.0 13.0 0.00 0.00 0.00 44 1010.9
20260905183043 98 318 7.0 12.0 0.00 0.00 0.00 43 1011.0
20260905181543 97 277 6.0 12.0 0.00 0.00 0.00 45 1011.2
20260905180042 97 310 4.0 9.0 0.00 0.00 0.00 45 1011.2
20260905174545 97 285 7.0 11.0 0.00 0.00 0.00 45 1011.4
20260905173041 97 281 2.0 11.0 0.00 0.00 0.00 46 1011.8
20260905171539 96 285 4.0 11.0 0.00 0.00 0.00 48 1011.9
20260905170040 96 304 2.0 10.0 0.00 0.00 0.00 48 1012.0
20260905164536 97 324 2.0 9.0 0.00 0.00 0.00 47 1012.1
20260905163033 96 257 3.0 7.0 0.00 0.00 0.00 47 1012.0
20260905161529 95 256 4.0 7.0 0.00 0.00 0.00 49 1011.9
20260905160029 95 236 0.0 0.0 0.00 0.00 0.00 48 1011.9
20260905154522 94 236 0.0 0.0 0.00 0.00 0.00 55 1011.9